Precipitable_Water
0.84 0.89 0.91 0.95 0.99 0.99 1.01 1.06 1.10 1.16 1.21 1.20 1.23 1.25 1.25 1.25 1.28 1.30 1.32 1.33 1.22 1.17 1.14 1.09 1.02 0.99 0.97 0.96 0.93 0.87 0.79 0.75 0.60 0.64 0.68 0.70 0.69 0.69 0.71 0.74 0.76 0.76 0.78
0.70 0.72 0.74 0.78 0.80 0.83 0.85 0.89 0.95 0.96 1.03 1.06 1.10 1.12 1.14 1.15 1.15 1.16 1.18 1.17 1.10 1.07 1.03 0.98 0.92 0.94 0.90 0.89 0.87 0.77 0.69 0.68 0.61 0.54 0.62 0.64 0.66 0.70 0.71 0.69 0.72 0.75 0.75
0.66 0.64 0.64 0.68 0.70 0.70 0.72 0.74 0.77 0.80 0.84 0.89 0.92 0.94 0.98 1.03 1.05 1.07 1.06 1.05 1.02 0.99 0.94 0.89 0.85 0.85 0.80 0.78 0.73 0.66 0.66 0.66 0.64 0.60 0.58 0.65 0.65 0.66 0.64 0.65 0.67 0.69 0.72
0.57 0.58 0.59 0.60 0.60 0.65 0.69 0.68 0.69 0.71 0.73 0.78 0.82 0.84 0.86 0.91 0.95 0.95 0.96 0.94 0.95 0.93 0.91 0.88 0.82 0.78 0.73 0.71 0.67 0.64 0.63 0.61 0.61 0.58 0.56 0.57 0.60 0.62 0.63 0.60 0.60 0.66 0.65
0.57 0.56 0.55 0.56 0.58 0.59 0.63 0.67 0.69 0.68 0.68 0.70 0.72 0.75 0.78 0.80 0.83 0.86 0.87 0.88 0.88 0.86 0.84 0.80 0.79 0.76 0.73 0.69 0.66 0.62 0.60 0.57 0.55 0.54 0.53 0.53 0.53 0.55 0.54 0.59 0.59 0.62 0.65
0.57 0.55 0.57 0.56 0.55 0.55 0.57 0.60 0.65 0.67 0.69 0.69 0.67 0.68 0.68 0.72 0.78 0.81 0.80 0.77 0.76 0.76 0.73 0.73 0.71 0.70 0.66 0.64 0.63 0.62 0.61 0.55 0.53 0.52 0.51 0.51 0.54 0.57 0.60 0.60 0.59 0.57 0.54
0.54 0.56 0.57 0.57 0.55 0.55 0.56 0.58 0.60 0.65 0.69 0.69 0.69 0.69 0.68 0.70 0.72 0.73 0.73 0.72 0.70 0.68 0.68 0.67 0.65 0.64 0.63 0.61 0.60 0.59 0.58 0.59 0.59 0.58 0.54 0.56 0.56 0.60 0.60 0.58 0.58 0.57 0.56
0.47 0.48 0.50 0.52 0.53 0.55 0.56 0.57 0.58 0.61 0.65 0.68 0.69 0.70 0.70 0.70 0.72 0.73 0.72 0.70 0.69 0.69 0.69 0.67 0.64 0.62 0.62 0.60 0.58 0.57 0.56 0.57 0.58 0.60 0.59 0.59 0.61 0.61 0.61 0.58 0.55 0.52 0.50
0.39 0.41 0.44 0.47 0.47 0.50 0.51 0.54 0.57 0.58 0.60 0.64 0.69 0.71 0.70 0.72 0.75 0.74 0.73 0.71 0.69 0.67 0.68 0.67 0.65 0.62 0.62 0.62 0.59 0.55 0.56 0.56 0.58 0.52 0.51 0.52 0.50 0.50 0.48 0.45 0.40 0.38 0.34
0.32 0.33 0.38 0.41 0.44 0.47 0.50 0.51 0.54 0.57 0.58 0.62 0.65 0.71 0.72 0.72 0.76 0.76 0.75 0.72 0.68 0.68 0.69 0.68 0.66 0.65 0.63 0.63 0.59 0.56 0.52 0.53 0.52 0.48 0.44 0.43 0.42 0.41 0.41 0.41 0.41 0.35 0.36
0.31 0.31 0.32 0.34 0.38 0.42 0.47 0.51 0.54 0.55 0.57 0.58 0.60 0.67 0.71 0.74 0.75 0.76 0.77 0.74 0.71 0.68 0.67 0.66 0.68 0.67 0.65 0.65 0.62 0.59 0.56 0.56 0.50 0.43 0.39 0.36 0.35 0.35 0.37 0.39 0.40 0.40 0.35
0.28 0.28 0.28 0.29 0.30 0.33 0.38 0.43 0.51 0.55 0.55 0.55 0.57 0.60 0.68 0.72 0.75 0.76 0.78 0.77 0.76 0.72 0.69 0.69 0.68 0.69 0.68 0.67 0.65 0.60 0.57 0.53 0.44 0.37 0.33 0.29 0.28 0.33 0.35 0.35 0.34 0.35 0.36
0.26 0.26 0.27 0.27 0.26 0.28 0.29 0.34 0.39 0.48 0.55 0.55 0.55 0.57 0.61 0.70 0.75 0.77 0.78 0.78 0.77 0.75 0.75 0.73 0.72 0.70 0.69 0.66 0.64 0.63 0.59 0.48 0.41 0.36 0.31 0.30 0.31 0.34 0.37 0.36 0.36 0.36 0.36
0.21 0.22 0.23 0.23 0.25 0.25 0.26 0.28 0.31 0.38 0.44 0.54 0.56 0.56 0.59 0.65 0.69 0.75 0.77 0.79 0.79 0.76 0.77 0.74 0.72 0.71 0.70 0.67 0.64 0.63 0.58 0.48 0.40 0.35 0.33 0.32 0.34 0.35 0.35 0.36 0.34 0.33 0.32
0.19 0.19 0.20 0.21 0.22 0.23 0.26 0.26 0.26 0.29 0.39 0.44 0.55 0.60 0.58 0.57 0.64 0.74 0.74 0.74 0.75 0.76 0.75 0.71 0.68 0.67 0.66 0.64 0.62 0.62 0.56 0.48 0.41 0.37 0.35 0.32 0.34 0.35 0.34 0.35 0.35 0.34 0.31
0.18 0.19 0.19 0.20 0.20 0.20 0.21 0.23 0.28 0.29 0.30 0.40 0.50 0.60 0.63 0.65 0.66 0.68 0.74 0.72 0.75 0.74 0.68 0.63 0.63 0.63 0.62 0.61 0.58 0.57 0.54 0.51 0.46 0.42 0.37 0.34 0.34 0.34 0.34 0.36 0.34 0.32 0.31
0.20 0.21 0.22 0.22 0.22 0.21 0.21 0.20 0.19 0.22 0.29 0.30 0.39 0.50 0.60 0.64 0.66 0.65 0.68 0.72 0.72 0.71 0.62 0.62 0.60 0.59 0.58 0.57 0.57 0.54 0.51 0.53 0.48 0.44 0.39 0.37 0.39 0.37 0.35 0.34 0.33 0.34 0.35
0.23 0.24 0.23 0.23 0.24 0.24 0.24 0.23 0.22 0.21 0.20 0.23 0.30 0.40 0.50 0.59 0.65 0.66 0.66 0.66 0.62 0.62 0.60 0.62 0.62 0.61 0.60 0.59 0.56 0.55 0.53 0.49 0.48 0.44 0.40 0.37 0.38 0.36 0.33 0.33 0.36 0.35 0.37
0.24 0.25 0.26 0.25 0.25 0.25 0.25 0.26 0.25 0.23 0.23 0.22 0.26 0.31 0.42 0.53 0.59 0.63 0.64 0.59 0.58 0.59 0.61 0.62 0.64 0.63 0.61 0.59 0.57 0.57 0.53 0.50 0.45 0.41 0.38 0.40 0.38 0.35 0.33 0.35 0.36 0.36 0.37
0.27 0.27 0.27 0.27 0.27 0.26 0.26 0.26 0.25 0.25 0.24 0.24 0.24 0.27 0.34 0.42 0.48 0.55 0.59 0.59 0.59 0.60 0.62 0.63 0.64 0.63 0.61 0.60 0.61 0.59 0.56 0.54 0.45 0.39 0.39 0.40 0.36 0.34 0.33 0.36 0.35 0.35 0.38
0.29 0.29 0.29 0.28 0.27 0.26 0.26 0.27 0.27 0.26 0.26 0.25 0.25 0.27 0.33 0.36 0.42 0.51 0.55 0.57 0.59 0.61 0.63 0.64 0.64 0.64 0.64 0.63 0.63 0.60 0.59 0.55 0.42 0.39 0.42 0.38 0.39 0.37 0.36 0.35 0.36 0.39 0.42
0.31 0.31 0.31 0.29 0.27 0.27 0.27 0.28 0.27 0.27 0.27 0.27 0.27 0.28 0.30 0.35 0.41 0.48 0.53 0.56 0.60 0.63 0.64 0.64 0.63 0.64 0.64 0.63 0.63 0.61 0.59 0.54 0.43 0.42 0.46 0.40 0.37 0.35 0.35 0.37 0.43 0.47 0.47
0.32 0.32 0.32 0.30 0.28 0.28 0.28 0.28 0.27 0.28 0.28 0.29 0.29 0.28 0.28 0.32 0.38 0.46 0.52 0.56 0.59 0.61 0.63 0.63 0.63 0.63 0.65 0.65 0.65 0.63 0.60 0.54 0.41 0.42 0.42 0.43 0.40 0.40 0.41 0.46 0.50 0.50 0.48
0.32 0.31 0.30 0.29 0.28 0.28 0.28 0.28 0.29 0.29 0.30 0.31 0.29 0.28 0.28 0.31 0.38 0.44 0.52 0.55 0.58 0.60 0.62 0.63 0.64 0.64 0.64 0.64 0.65 0.65 0.64 0.53 0.47 0.47 0.43 0.42 0.44 0.46 0.50 0.54 0.54 0.51 0.49
0.31 0.30 0.29 0.29 0.29 0.28 0.29 0.29 0.28 0.29 0.29 0.29 0.29 0.29 0.29 0.32 0.39 0.44 0.52 0.55 0.57 0.59 0.60 0.62 0.63 0.64 0.64 0.63 0.63 0.64 0.64 0.58 0.53 0.49 0.47 0.48 0.53 0.54 0.55 0.54 0.53 0.51 0.49
0.28 0.29 0.31 0.30 0.29 0.28 0.28 0.28 0.28 0.29 0.29 0.29 0.30 0.30 0.30 0.34 0.40 0.45 0.51 0.54 0.56 0.58 0.60 0.61 0.62 0.63 0.63 0.63 0.63 0.63 0.63 0.62 0.59 0.58 0.59 0.59 0.57 0.56 0.55 0.53 0.51 0.49 0.45
Wind_Speed
12 13 14 16 18 19 20 21 22 23 23 24 25 24 25 25 26 27 27 27 24 23 23 23 22 23 23 24 25 25 26 27 28 28 28 29 29 30 30 30 31 31 30
13 14 16 17 18 20 21 23 24 25 26 25 25 26 26 27 27 27 26 26 25 24 24 24 24 24 24 25 25 25 26 28 28 28 28 28 29 29 29 29 29 29 28
15 16 17 18 20 21 22 23 23 25 25 26 26 27 27 28 28 27 27 27 27 27 26 25 25 25 26 26 26 27 28 28 28 28 27 27 28 28 28 28 28 28 28
18 19 20 21 22 24 25 26 27 27 27 27 27 27 27 28 28 28 29 29 29 28 28 28 28 28 28 28 28 28 28 27 27 27 28 27 28 28 28 28 28 29 28
23 24 24 25 25 26 27 28 28 29 29 29 29 29 29 30 30 30 30 30 30 30 30 30 30 30 29 29 28 28 27 27 27 27 28 28 28 28 28 28 27 27 27
27 28 29 30 29 30 30 30 31 31 31 32 32 32 31 32 32 32 31 31 31 31 31 31 31 30 30 30 29 28 27 27 27 27 28 28 28 28 27 27 26 24 24
31 32 32 33 33 33 33 33 33 33 33 34 34 34 35 35 34 35 34 33 33 33 33 32 32 31 30 29 28 28 27 27 27 27 27 28 28 27 26 25 24 23 23
33 34 35 36 36 36 36 36 36 36 36 36 37 37 37 37 37 37 37 36 35 35 34 33 32 31 30 29 27 27 26 26 26 27 27 26 26 25 24 24 23 22 20
34 35 36 36 37 37 37 38 38 38 38 38 38 38 38 38 38 38 37 37 36 35 35 34 32 31 30 28 28 26 26 26 26 26 26 25 24 24 23 23 22 20 18
36 36 37 37 38 38 38 38 38 38 39 39 39 39 39 38 38 38 38 37 36 35 34 33 32 31 30 29 28 27 26 26 25 25 24 24 23 23 22 22 21 19 17
39 38 39 38 38 38 38 37 38 38 39 39 39 39 39 38 38 38 38 36 35 35 34 33 32 32 30 30 29 28 27 26 25 25 24 23 22 21 20 19 18 18 16
42 41 39 39 38 38 37 37 36 36 37 38 40 40 39 39 38 38 38 37 36 35 34 34 33 32 31 31 29 28 27 26 25 24 23 23 21 20 19 18 17 16 16
44 43 42 41 40 39 38 37 36 35 36 36 37 37 39 39 38 38 38 38 37 36 35 34 33 33 32 31 30 29 27 26 25 24 24 22 21 20 18 17 16 15 14
45 44 43 42 41 40 39 38 37 35 35 35 36 36 37 38 38 37 37 38 39 37 36 35 34 33 32 31 31 30 28 27 25 24 23 22 21 20 19 17 16 15 14
44 43 42 41 41 41 40 39 39 38 36 36 36 36 36 37 39 39 38 37 37 37 36 36 35 34 33 32 31 30 29 27 26 25 23 22 21 20 19 18 17 16 16
38 37 37 37 38 39 39 39 39 40 39 38 37 37 37 38 38 39 39 39 38 37 36 36 36 35 34 33 32 31 29 28 27 26 24 23 22 20 20 19 18 18 17
31 30 30 30 31 32 34 36 38 38 39 39 38 37 37 38 38 39 40 38 38 37 37 36 36 35 34 33 32 31 29 28 26 25 26 25 23 22 21 20 19 19 18
31 31 31 31 31 31 32 32 34 35 37 38 38 37 36 36 38 39 39 39 38 38 37 35 35 35 34 33 31 30 29 28 27 26 26 26 25 23 22 22 21 20 19
33 33 33 33 33 33 33 33 33 34 34 35 37 37 36 35 34 35 37 38 37 36 36 34 33 33 33 33 31 30 29 28 28 27 27 27 26 25 24 23 22 22 21
35 35 35 34 34 34 34 33 32 32 32 33 34 35 36 34 33 33 36 38 37 36 36 34 33 32 32 31 31 30 29 28 28 27 27 27 26 26 25 24 24 23 22
36 36 35 35 34 34 33 33 32 32 32 32 33 34 35 35 34 33 31 35 37 35 34 33 32 32 31 30 29 29 28 28 27 27 27 27 27 26 26 25 24 24 23
34 34 33 33 33 32 32 31 32 31 31 30 31 32 34 35 35 32 32 32 34 34 33 31 31 30 29 29 28 27 27 27 27 27 28 27 27 26 26 26 25 25 24
31 31 31 31 30 29 29 29 29 28 28 28 29 30 31 33 33 33 30 31 31 32 32 31 30 28 27 27 27 27 26 27 27 27 27 28 28 27 27 26 25 24 24
27 27 27 26 26 26 26 27 27 26 26 26 27 29 30 32 32 32 30 29 30 30 30 30 29 27 26 25 25 25 25 24 24 24 25 24 25 26 26 25 25 26 25
22 23 24 23 24 25 26 24 24 24 25 26 27 28 29 30 30 30 28 27 26 28 28 27 26 26 25 24 24 24 24 24 23 23 23 23 22 23 24 25 25 25 26
20 21 20 22 23 23 22 23 23 23 23 23 24 26 28 29 29 28 28 26 24 25 26 25 24 24 24 23 23 23 23 23 23 23 23 23 23 23 23 24 25 25 25
Wind_Direction
260 261 262 261 259 259 259 259 259 255 255 254 255 252 249 248 246 247 250 248 248 247 249 254 257 261 265 269 274 279 281 282 285 286 289 291 292 292 292 291 290 288 287
272 270 270 270 268 266 263 262 262 261 260 260 258 256 254 252 251 251 249 247 245 247 251 255 258 262 267 272 277 281 282 283 285 287 289 290 291 292 292 290 289 288 288
278 278 277 273 269 268 266 264 263 262 261 260 259 256 253 251 251 249 247 246 247 250 253 256 259 263 270 273 278 280 282 283 283 285 288 288 290 291 291 290 289 288 287
284 282 281 278 275 271 268 267 266 264 261 260 258 255 253 251 249 248 248 248 250 251 254 257 260 264 268 272 275 278 279 278 279 282 285 286 288 288 288 289 289 287 286
284 282 280 280 277 274 271 268 266 263 261 259 257 256 253 251 250 249 249 249 250 252 255 258 262 264 268 271 273 275 275 275 278 282 284 286 287 287 287 288 287 286 286
282 280 279 278 277 275 273 270 267 264 262 260 258 255 253 252 251 249 249 249 251 253 255 259 261 264 267 269 271 271 272 274 277 280 284 285 285 285 286 286 285 285 287
282 281 279 279 277 276 274 270 268 265 263 260 258 256 254 253 251 250 251 252 253 255 255 258 260 263 264 266 266 269 271 273 277 281 282 284 285 283 283 282 281 283 284
284 282 280 279 278 276 274 271 268 265 263 261 259 257 255 254 251 250 251 253 253 254 255 256 259 259 261 262 264 266 268 273 278 280 283 284 283 283 282 281 279 279 281
286 285 283 281 278 276 274 271 269 266 264 261 259 257 255 254 252 250 250 251 252 253 254 255 255 256 257 258 261 263 267 272 277 280 282 282 282 280 279 278 276 276 276
287 286 284 281 279 277 275 273 270 267 264 261 258 257 255 254 252 250 249 250 250 251 252 252 252 253 255 255 257 260 266 271 274 278 280 280 279 278 276 274 271 269 271
287 285 282 281 279 277 276 274 271 268 265 262 259 257 255 253 251 249 248 249 249 249 250 250 251 250 252 253 254 260 264 269 272 275 275 275 275 275 273 270 265 264 264
285 283 281 280 279 278 277 275 273 269 266 263 259 256 254 252 250 248 247 247 246 247 247 248 249 249 249 251 253 257 262 265 268 270 272 270 269 269 269 265 262 261 260
284 283 281 280 279 277 276 274 273 270 266 263 259 256 252 250 250 248 246 245 246 246 247 247 247 248 248 249 251 254 258 261 264 266 267 266 265 265 261 259 256 255 253
284 283 281 279 278 277 275 273 271 269 267 263 259 256 253 249 247 247 246 245 245 245 246 246 246 247 248 248 250 252 255 258 261 262 262 260 259 258 254 251 249 247 246
283 281 280 278 276 275 273 272 269 268 265 263 260 256 253 249 247 245 245 245 245 244 244 244 245 246 247 248 248 249 252 255 256 258 257 254 253 250 246 246 245 244 246
283 281 280 278 276 275 273 271 269 267 264 261 259 256 253 250 247 244 243 242 243 243 243 243 244 244 245 245 245 247 249 252 254 253 250 248 247 243 242 242 243 244 245
285 283 282 282 282 280 277 273 270 268 264 260 257 256 253 249 247 244 242 241 241 241 243 242 242 241 241 242 243 245 248 249 250 249 244 242 242 241 240 241 241 243 244
284 284 284 283 282 282 281 279 274 269 265 260 255 253 251 250 246 244 240 239 239 240 240 241 239 238 238 241 242 243 245 246 247 245 242 239 238 238 239 240 241 242 246
284 283 283 283 281 281 280 280 278 273 265 260 255 250 248 246 246 240 236 236 236 237 237 237 237 236 237 238 239 241 243 243 244 241 239 237 237 237 238 240 241 242 247
283 283 283 282 281 281 279 277 277 276 268 260 254 248 245 243 242 240 238 234 233 234 234 234 235 235 236 237 237 239 241 241 239 237 237 236 236 236 238 240 241 243 249
281 282 282 282 281 280 278 275 275 275 269 260 254 248 244 240 239 238 237 232 231 232 232 233 233 233 235 235 235 236 238 237 236 236 236 236 236 237 239 239 242 247 253
281 281 281 282 281 280 278 274 276 273 267 259 252 247 242 238 236 236 235 233 231 230 231 231 231 231 233 232 232 234 236 235 235 235 235 236 236 237 237 240 245 250 249
281 281 281 282 281 280 278 276 276 271 264 256 251 245 240 234 233 232 233 232 232 229 228 228 228 229 231 231 232 234 235 234 235 236 236 235 236 239 239 243 245 246 251
282 282 283 281 280 280 279 278 275 269 263 255 252 243 237 231 231 229 231 231 230 225 223 225 224 227 230 232 234 233 233 232 233 235 235 235 236 238 238 242 244 249 254
288 286 284 282 283 284 283 278 272 269 266 258 249 239 231 227 226 225 226 225 224 218 218 219 220 225 228 231 233 232 230 230 232 233 234 235 236 238 242 245 248 251 256
294 292 288 289 287 286 283 280 275 269 265 255 243 232 225 221 221 220 219 218 216 214 216 217 220 226 228 231 231 230 230 230 231 230 235 238 240 243 246 249 251 254 258